San Luis Potosi, Mexico

5:56 PM CST on March 26, 2017 (GMT -0600)
Ponciano Arriaga International

Weather History for MMSP - January, 2013

Change the Weather History Date:

Wednesday, January 9, 2013

  Actual Average Record
Temperature  
Mean Temperature 64 °F -  
Max Temperature 75 °F 67 °F 82 °F (2009)
Min Temperature 54 °F 37 °F 28 °F (2002)
Growing Degree Days 14 (Base 50)    
Moisture  
Dew Point 44 °F    
Average Humidity 51    
Maximum Humidity 88    
Minimum Humidity 25    
Precipitation  
Precipitation 0.00 in - - ()
Sea Level Pressure  
Sea Level Pressure 29.95 in    
Wind  
Wind Speed 9 mph ()    
Max Wind Speed 23 mph    
Max Gust Speed 34 mph    
Visibility 11.3 miles    
Events Rain    
Averages and records for this station are not official NWS values.
T = Trace of Precipitation, MM = Missing Value Source: Averaged Metar Reports

Daily Weather History Graph

Daily Weather History Graph

Search for Another Location

Airport or City:

Trip Planner

Search our weather history database for the weather conditions in past years. The results will help you decide how hot, cold, wet, or windy it might be!

Date:

Astronomy

Jan. 09, 2013 Rise Set
Actual Time 7:25 AM CST 6:17 PM CST
Civil Twilight 7:00 AM CST 6:41 PM CST
Nautical Twilight 6:33 AM CST 7:08 PM CST
Astronomical Twilight 6:06 AM CST 7:36 PM CST
Moon 5:06 AM CST (1/9) 4:21 PM CST (1/9)
Length of Visible Light 11h 40m
Length of Day
10h 51m
Waning Crescent, 6% of the Moon is Illuminated
Jan 9
Waning Crescent
Jan 11
New
Jan 18
First Quarter
Jan 26
Full
Feb 3
Last Quarter

Hourly Weather History & Observations

Time (CST) Temp. Dew Point Humidity Pressure Visibility Wind Dir Wind Speed Gust Speed Precip Events Conditions
12:43 AM 57.2 °F 48.2 °F 72% 30.06 in 10.0 mi South 6.9 mph - N/A   Mostly Cloudy
1:46 AM 57.2 °F 48.2 °F 72% 30.04 in 10.0 mi SSE 4.6 mph - N/A   Mostly Cloudy
2:40 AM 57.2 °F 48.2 °F 72% 29.67 in 10.0 mi SE 9.2 mph - N/A   Mostly Cloudy
3:40 AM 57.2 °F 48.2 °F 72% 30.03 in 10.0 mi SE 6.9 mph - N/A   Mostly Cloudy
4:45 AM 51.8 °F 48.2 °F 88% 30.04 in 10.0 mi South 6.9 mph - N/A   Mostly Cloudy
5:45 AM 59 °F 52 °F 71% 29.78 in 3 mi NNW 4.5 mph - - Rain Light Drizzle
5:46 AM 57.2 °F 48.2 °F 72% 29.71 in 10.0 mi West 9.2 mph - N/A   Mostly Cloudy
6:41 AM 59.0 °F 50.0 °F 72% 30.07 in 10.0 mi West 13.8 mph - N/A   Mostly Cloudy
7:40 AM 59.0 °F 46.4 °F 63% 30.10 in 15.0 mi SW 9.2 mph - N/A   Mostly Cloudy
8:50 AM 58 °F 54 °F 80% 29.87 in 6 mi WNW 4.5 mph - -   Haze
8:50 AM 59.0 °F 46.4 °F 63% 29.80 in 15.0 mi SSW 13.8 mph - N/A   Scattered Clouds
9:44 AM 60.8 °F 46.4 °F 59% 30.15 in 15.0 mi SW 16.1 mph - N/A   Mostly Cloudy
10:51 AM 66.2 °F 46.4 °F 49% 30.14 in 15.0 mi SSW 16.1 mph 28.8 mph N/A   Mostly Cloudy
11:45 AM 66 °F 53 °F 52% 29.90 in 7 mi WNW 8.9 mph - -   Haze
11:50 AM 68.0 °F 44.6 °F 43% 30.06 in 15.0 mi SSW 20.7 mph 34.5 mph N/A   Mostly Cloudy
12:46 PM 71.6 °F 41.0 °F 33% 30.10 in 15.0 mi SW 20.7 mph 32.2 mph N/A   Scattered Clouds
1:42 PM 71.6 °F 41.0 °F 33% 30.07 in 15.0 mi SW 17.3 mph 34.5 mph N/A   Mostly Cloudy
2:45 PM 72 °F 50 °F 35% 29.78 in 12 mi WNW 8.9 mph - -   Scattered Clouds
2:45 PM 73.4 °F 35.6 °F 25% 29.65 in 15.0 mi WSW 17.3 mph 34.5 mph N/A   Scattered Clouds
3:40 PM 73.4 °F 35.6 °F 25% 30.06 in 15.0 mi WSW 21.9 mph 34.5 mph N/A   Scattered Clouds
4:43 PM 73.4 °F 35.6 °F 25% 30.08 in 15.0 mi WSW 17.3 mph 34.5 mph N/A   Scattered Clouds
5:46 PM 68.0 °F 35.6 °F 30% 29.73 in 15.0 mi SW 23.0 mph 34.5 mph N/A   Scattered Clouds
5:50 PM 68 °F 54 °F 52% 29.75 in 11 mi WNW 6.7 mph - -   Haze
6:40 PM 66.2 °F 32.0 °F 28% 30.12 in 12.0 mi SW 16.1 mph - N/A   Scattered Clouds
7:48 PM 64.4 °F 30.2 °F 28% 30.13 in 12.0 mi SW 5.8 mph - N/A   Clear
8:45 PM 64.4 °F 30.2 °F 28% 29.78 in 12.0 mi SSW 6.9 mph - N/A   Clear
8:50 PM 63 °F 52 °F 57% 29.81 in 5 mi WSW 4.5 mph - -  
9:48 PM 60.8 °F 33.8 °F 36% 30.16 in 10.0 mi South 5.8 mph - N/A   Clear
10:42 PM 60.8 °F 35.6 °F 39% 30.18 in 10.0 mi South 5.8 mph - N/A   Clear
11:42 PM 57.2 °F 35.6 °F 44% 29.84 in 10.0 mi West 3.5 mph - N/A   Clear
11:50 PM 59 °F 49 °F 59% 29.86 in 5 mi SSW 4.5 mph - -